Tracking 29892 objects as of 21-Nov-2024
HD Live streaming from Space Station
objects crossing your sky now

NIMBUS 2 DEB

Track NIMBUS 2 DEB now!
10-day predictions


NORAD ID: 28200
Int'l Code: 1966-040N
Perigee: 1,128.1 km
Apogee: 1,197.7 km
Inclination: 99.7 °
Period: 108.5 minutes
Semi major axis: 7533 km
RCS: 0.045 m2 (small)
Launch date: May 15, 1966
Source: United States (US)
Launch site: AIR FORCE WESTERN TEST RANGE (AFWTR)

Note: This is SATELLITE DEBRIS
Your satellite tracking list
Your tracking list is empty




NASA's NSSDC Master Catalog

Two Line Element Set (TLE):
1 28200U 66040N   24325.29054274 -.00001124  00000-0 -23892-2 0  9993
2 28200  99.6759  77.9741 0046154 287.9128 101.0926 13.27620223 55862
Source of the keplerian elements: AFSPC